Tracking 30995 objects as of 7-Jul-2025
HD Live streaming from Space Station
objects crossing your sky now

COSMOS 1486

Track COSMOS 1486 now!
10-day predictions
COSMOS 1486 is classified as:


NORAD ID: 14240
Int'l Code: 1983-079A
Perigee: 772.9 km
Apogee: 793.3 km
Inclination: 74.1 °
Period: 100.4 minutes
Semi major axis: 7154 km
RCS: 2.07 m2 (large)
Launch date: August 3, 1983
Source: Commonwealth of Independent States (former USSR) (CIS)
Launch site: PLESETSK MISSILE AND SPACE COMPLEX (PKMTR)
Your satellite tracking list
Your tracking list is empty




NASA's NSSDC Master Catalog

Two Line Element Set (TLE):
1 14240U 83079A   25187.56978020  .00000081  00000-0  37681-4 0  9996
2 14240  74.0584 323.4407 0014282 323.2053 112.4924 14.34724573192183
Source of the keplerian elements: AFSPC